Houston Hull, TX

7:32 AM CDT on October 16, 2019 (GMT -0500)
Sugar Land Municipal-Hull

Weather History for KSGR - August, 2019

Change the Weather History Date:

Sunday, August 11, 2019

  Actual Average Record
Temperature  
Mean Temperature 86 °F -  
Max Temperature 98 °F 94 °F 104 °F (1962)
Min Temperature 75 °F 73 °F 65 °F (1989)
Cooling Degree Days 22    
Growing Degree Days 36 (Base 50)    
Moisture  
Dew Point 78 °F    
Average Humidity 75    
Maximum Humidity 100    
Minimum Humidity 51    
Precipitation  
Precipitation 0.00 in - - ()
Sea Level Pressure  
Sea Level Pressure 29.97 in    
Wind  
Wind Speed 7 mph (South)    
Max Wind Speed 14 mph    
Max Gust Speed 21 mph    
Visibility 10 miles    
Events      
Averages and records for this station are not official NWS values.
T = Trace of Precipitation, MM = Missing Value Source: NWS Daily Summary

Daily Weather History Graph

Daily Weather History Graph

Search for Another Location

Airport or City:

Astronomy

Aug. 11, 2019 Rise Set
Actual Time 6:48 AM CDT 8:07 PM CDT
Civil Twilight 6:22 AM CDT 8:32 PM CDT
Nautical Twilight 5:52 AM CDT 9:02 PM CDT
Astronomical Twilight 5:21 AM CDT 9:33 PM CDT
Moon 5:36 PM CDT (8/11) 3:18 AM CDT (8/11)
Length of Visible Light 14h 09m
Length of Day
13h 18m
Waxing Gibbous, 87% of the Moon is Illuminated
Aug 11
Waxing Gibbous
Aug 15
Full
Aug 23
Last Quarter
Aug 30
New
Sep 5
First Quarter

Hourly Weather History & Observations

Time (CDT) Temp. Heat Index Dew Point Humidity Pressure Visibility Wind Dir Wind Speed Gust Speed Precip Events Conditions
12:53 AM 80.1 °F 86.7 °F 79.0 °F 96% 29.97 in 10.0 mi South 5.8 mph - N/A   Clear
1:53 AM 80.1 °F 86.4 °F 78.1 °F 94% 29.96 in 10.0 mi South 5.8 mph - N/A   Clear
2:53 AM 79.0 °F - 78.1 °F 97% 29.96 in 10.0 mi South 4.6 mph - N/A   Clear
3:53 AM 80.1 °F 86.4 °F 78.1 °F 94% 29.96 in 10.0 mi SSW 5.8 mph - N/A   Clear
4:53 AM 79.0 °F - 78.1 °F 97% 29.98 in 10.0 mi SSW 4.6 mph - N/A   Clear
5:53 AM 79.0 °F - 77.0 °F 94% 29.98 in 10.0 mi South 3.5 mph - N/A   Clear
6:53 AM 75.9 °F - 75.9 °F 100% 29.99 in 8.0 mi Calm Calm - N/A   Clear
7:53 AM 80.1 °F 86.7 °F 79.0 °F 96% 30.00 in 10.0 mi Calm Calm - 0.00 in   Clear
8:53 AM 84.9 °F 97.5 °F 79.0 °F 82% 30.01 in 10.0 mi SSW 8.1 mph - N/A   Clear
9:46 AM 88.0 °F 104.3 °F 80.1 °F 77% 30.02 in 10.0 mi SSW 9.2 mph - N/A   Mostly Cloudy
9:53 AM 88.0 °F 104.3 °F 80.1 °F 77% 30.02 in 10.0 mi SW 10.4 mph - N/A   Mostly Cloudy
10:09 AM 88.0 °F 101.3 °F 78.1 °F 72% 30.02 in 10.0 mi South 9.2 mph - N/A   Mostly Cloudy
10:53 AM 91.9 °F 107.3 °F 78.1 °F 64% 30.02 in 10.0 mi SSW 6.9 mph - N/A   Partly Cloudy
11:53 AM 91.0 °F 104.2 °F 77.0 °F 63% 30.02 in 10.0 mi West 4.6 mph - N/A   Mostly Cloudy
12:53 PM 95.0 °F 108.2 °F 75.9 °F 54% 30.00 in 10.0 mi SSW 6.9 mph - N/A   Clear
1:53 PM 95.0 °F 106.7 °F 75.0 °F 52% 29.97 in 10.0 mi Variable 4.6 mph - N/A   Scattered Clouds
2:53 PM 98.1 °F 113.8 °F 77.0 °F 51% 29.94 in 10.0 mi South 11.5 mph - N/A   Partly Cloudy
3:00 PM 98.1 °F 113.8 °F 77.0 °F 51% 29.94 in 10.0 mi South 11.5 mph 18.4 mph N/A   Partly Cloudy
3:53 PM 97.0 °F 112.7 °F 77.0 °F 53% 29.93 in 10.0 mi South 9.2 mph 20.7 mph N/A   Clear
4:53 PM 97.0 °F 113.5 °F 78.1 °F 54% 29.91 in 10.0 mi South 12.7 mph - N/A   Clear
5:53 PM 95.0 °F 106.7 °F 75.0 °F 52% 29.91 in 10.0 mi SSE 13.8 mph - N/A   Clear
6:53 PM 93.0 °F 105.3 °F 75.9 °F 57% 29.90 in 10.0 mi SSW 12.7 mph - N/A   Clear
7:53 PM 89.1 °F 101.4 °F 77.0 °F 67% 29.91 in 10.0 mi South 10.4 mph - N/A   Clear
8:53 PM 84.9 °F 95.3 °F 77.0 °F 77% 29.93 in 10.0 mi South 11.5 mph - N/A   Clear
9:53 PM 82.9 °F 92.8 °F 78.1 °F 85% 29.94 in 10.0 mi South 8.1 mph - N/A   Clear
10:53 PM 82.0 °F 91.6 °F 79.0 °F 90% 29.95 in 10.0 mi South 5.8 mph - N/A   Clear
11:53 PM 82.0 °F 91.6 °F 79.0 °F 90% 29.94 in 10.0 mi South 5.8 mph - N/A   Clear